DateTime,F1_A11,F1_S11,BsB_S11,BsG_S11,BsR_S11,BbsB_S11,BbsG_S11,BbsR_S11,BaB_A11,BaG_A11,BaR_A11,T_S11,U_S11,P_S11,T1_A11
2016-02-04T00:00:00Z,0000380,21000600,,,,,,,,,,23.5,00.0,0646.6,34.2
2016-02-04T00:01:00Z,0000380,21000600,,,,,,,,,,23.5,00.0,0646.6,34.2
2016-02-04T00:02:00Z,0000380,21000600,,,,,,,,,,23.5,00.0,0646.6,34.2
2016-02-04T00:03:00Z,0000380,61000600,,,,,,,,,,23.6,00.0,0646.6,34.2
2016-02-04T00:04:00Z,0000380,41000600,-000.03,0001.01,0000.25,-000.39,0000.10,0000.00,0000.06,-000.13,-000.04,23.6,00.0,0647.2,34.2
2016-02-04T00:05:00Z,0000380,01000600,0001.27,0000.08,0000.13,-000.34,-000.14,-000.02,0000.13,0000.17,0000.40,23.6,00.0,0647.3,34.2
2016-02-04T00:06:00Z,0000380,01000600,0000.83,0000.63,0000.25,-000.40,0000.19,-000.05,0000.03,0000.09,-000.21,23.6,00.0,0647.3,34.2
2016-02-04T00:07:00Z,0000380,01000600,0000.47,0000.39,-000.22,-000.42,-000.19,0000.06,0000.04,-000.06,-000.11,23.6,00.0,0647.3,34.2
2016-02-04T00:08:00Z,0000380,01000600,0001.46,-000.33,0000.47,-000.57,-000.06,0000.10,-000.15,0000.03,-000.06,23.6,00.0,0647.3,34.2
2016-02-04T00:09:00Z,0000380,01000600,0000.68,0000.21,-000.15,-000.50,0000.13,0000.03,0000.03,-000.13,0000.06,23.6,00.0,0647.3,34.2
2016-02-04T00:10:00Z,0000380,01000600,0000.66,0000.35,0000.28,-000.28,-000.02,0000.02,0000.09,0000.24,-000.04,23.7,00.0,0647.3,34.2
2016-02-04T00:11:00Z,0000380,01000600,0000.59,0000.96,0000.13,0000.21,-000.29,0000.10,0000.02,-000.11,0000.36,23.7,00.0,0647.3,34.2
2016-02-04T00:12:00Z,0000380,01000600,0001.03,0000.30,0000.08,-000.36,0000.13,-000.40,-000.01,0000.01,-000.03,23.6,00.0,0647.3,34.2
2016-02-04T00:13:00Z,0000380,01000600,-000.08,0000.66,-000.16,-000.13,-000.06,-000.18,0000.03,0000.00,-000.21,23.7,00.0,0647.3,34.2
2016-02-04T00:14:00Z,0000380,01000600,0001.17,0000.99,0000.27,-000.23,0000.00,0000.23,-000.15,-000.07,0000.41,23.7,00.0,0647.3,34.2
2016-02-04T00:15:00Z,0000380,01000600,0001.18,0000.39,-000.47,-000.29,0000.32,-000.24,0000.16,0000.20,-000.35,23.7,00.0,0647.3,34.2
2016-02-04T00:16:00Z,0000380,01000600,0000.65,0000.20,-000.30,0000.15,0000.02,-000.29,0000.03,-000.07,0000.23,23.7,00.0,0647.3,34.2
2016-02-04T00:17:00Z,0000380,01000600,0000.26,0000.36,0000.23,-000.13,0000.13,0000.21,0000.11,0000.07,-000.18,23.7,00.0,0647.3,34.2
2016-02-04T00:18:00Z,0000380,01000600,0000.61,0000.53,-000.17,0000.06,-000.34,-000.10,-000.00,0000.10,0000.14,23.7,00.0,0647.3,34.2
2016-02-04T00:19:00Z,0000380,01000600,0000.72,0000.29,0000.28,-000.32,-000.15,0000.18,0000.07,-000.03,-000.12,23.7,00.0,0647.2,34.2
2016-02-04T00:20:00Z,0000380,01000600,0001.03,-000.02,0000.08,0000.34,0000.16,0000.15,-000.15,0000.07,0000.29,23.6,00.0,0647.2,34.2
2016-02-04T00:21:00Z,0000380,01000600,0000.46,0000.20,0000.26,-000.18,-000.08,-000.11,0000.08,-000.03,-000.45,23.7,00.0,0647.2,34.2
2016-02-04T00:22:00Z,0000380,01000600,0000.98,0000.51,0000.49,-000.42,0000.34,-000.21,0000.02,-000.17,0000.30,23.6,00.0,0647.2,34.2
2016-02-04T00:23:00Z,0000380,01000600,0001.50,0000.05,0000.04,-000.83,-000.31,0000.08,0000.12,0000.22,0000.15,23.7,00.0,0647.2,34.2
2016-02-04T00:24:00Z,0000380,01000600,0000.78,-000.26,-000.32,0000.44,0000.14,0000.05,-000.06,0000.05,-000.09,23.6,00.0,0647.2,34.2
2016-02-04T00:25:00Z,0000380,01000600,0000.60,0000.29,0000.39,0000.08,0000.02,0000.31,-000.18,-000.08,-000.26,23.6,00.0,0647.2,34.2
2016-02-04T00:26:00Z,0000380,01000600,0000.52,0000.20,0000.30,-000.37,0000.00,0000.08,0000.23,-000.00,0000.41,23.7,00.0,0647.2,34.2
2016-02-04T00:27:00Z,0000380,01000600,0000.41,0000.43,-000.08,0000.36,-000.23,0000.02,-000.07,0000.06,-000.20,23.6,00.0,0647.1,34.2
2016-02-04T00:28:00Z,0000380,01000600,0000.62,0000.13,0000.16,-000.19,-000.08,0000.11,-000.01,-000.04,0000.16,23.7,00.0,0647.1,34.2
2016-02-04T00:29:00Z,0000380,01000600,0000.75,0000.26,0000.41,-000.40,-000.08,0000.49,0000.01,0000.02,-000.12,23.7,00.0,0647.1,34.2
2016-02-04T00:30:00Z,0000380,01000600,0001.22,0000.47,-000.10,0000.00,0000.08,-000.23,0000.12,0000.06,-000.13,23.7,00.0,0647.1,34.2
2016-02-04T00:31:00Z,0000380,01000600,0001.49,0000.36,-000.14,-000.37,-000.06,-000.13,-000.00,-000.05,0000.14,23.7,00.0,0647.1,34.2
2016-02-04T00:32:00Z,0000380,01000600,0000.75,0000.15,0000.64,-000.15,-000.21,0000.13,0000.10,-000.02,0000.02,23.7,00.0,0647.1,34.2
2016-02-04T00:33:00Z,0000380,01000600,0000.78,0000.41,-000.06,-000.13,-000.27,0000.13,-000.13,0000.07,-000.01,23.7,00.0,0647.1,34.2
2016-02-04T00:34:00Z,0000380,01000600,0000.50,0000.03,0000.40,0000.05,0000.44,0000.19,0000.17,-000.06,0000.03,23.7,00.0,0647.1,34.2
2016-02-04T00:35:00Z,0000380,01000600,0000.62,0000.20,0000.00,0000.21,0000.15,0000.02,-000.15,0000.11,0000.09,23.7,00.0,0647.1,34.2
2016-02-04T00:36:00Z,0000380,01000600,0000.54,0000.44,0000.26,-000.36,-000.24,-000.32,0000.11,0000.08,0000.12,23.7,00.0,0647.1,34.2
2016-02-04T00:37:00Z,0000380,01000600,0001.77,0000.28,-000.03,0000.13,-000.03,-000.18,-000.10,-000.04,0000.03,23.7,00.0,0647.1,34.2
2016-02-04T00:38:00Z,0000380,01000600,0000.99,0000.19,-000.40,-000.84,-000.06,0000.21,-000.03,-000.08,-000.47,23.7,00.0,0647.1,34.2
2016-02-04T00:39:00Z,0000380,01000600,0000.79,0000.14,0000.07,-000.40,-000.29,0000.18,0000.17,0000.15,0000.27,23.7,00.0,0647.1,34.2
2016-02-04T00:40:00Z,0000380,01000600,0001.49,0000.53,0000.20,-000.21,0000.29,0000.00,0000.10,-000.11,0000.10,23.7,00.0,0647.1,34.2
2016-02-04T00:41:00Z,0000380,01000600,0000.42,-000.12,-000.14,0000.06,-000.08,-000.15,-000.13,0000.09,-000.01,23.7,00.0,0647.1,34.2
2016-02-04T00:42:00Z,0000380,01000600,0001.03,0000.12,0000.03,0000.11,-000.13,0000.13,-000.00,-000.02,-000.09,23.7,00.0,0647.1,34.2
2016-02-04T00:43:00Z,0000380,01000600,0001.06,0000.35,0000.47,-000.37,-000.23,0000.18,0000.02,0000.03,0000.31,23.7,00.0,0647.1,34.2
2016-02-04T00:44:00Z,0000380,01000600,0000.84,0000.60,-000.19,0000.19,0000.39,0000.05,0000.05,0000.01,-000.00,23.7,00.0,0647.1,34.2
2016-02-04T00:45:00Z,0000380,01000600,0000.61,0000.57,-000.08,-000.32,0000.02,0000.02,-000.02,0000.16,-000.04,23.7,00.0,0647.1,34.2
2016-02-04T00:46:00Z,0000380,01000600,0001.29,0000.37,-000.23,-000.32,-000.35,-000.02,0000.08,-000.21,-000.20,23.7,00.0,0647.1,34.2
2016-02-04T00:47:00Z,0000380,01000600,0000.20,-000.12,0000.02,-000.57,-000.27,-000.28,0000.02,0000.13,0000.11,23.7,00.0,0647.0,34.2
2016-02-04T00:48:00Z,0000380,01000600,0000.92,0000.60,0000.31,-000.05,-000.08,0000.02,-000.00,-000.14,0000.22,23.7,00.0,0647.0,34.2
2016-02-04T00:49:00Z,0000380,01000600,0001.64,0000.32,-000.01,-000.15,-000.15,-000.18,-000.11,0000.15,-000.10,23.7,00.0,0647.0,34.2
2016-02-04T00:50:00Z,0000380,01000600,-000.32,0000.45,0000.06,-000.44,0000.08,-000.10,-000.06,-000.08,-000.12,23.7,00.0,0647.0,34.2
2016-02-04T00:51:00Z,0000380,01000600,0001.05,0000.51,0000.30,0000.19,0000.23,0000.10,-000.01,-000.04,0000.11,23.7,00.0,0647.0,34.2
2016-02-04T00:52:00Z,0000380,01000600,0000.34,0000.61,0000.16,-000.24,0000.08,-000.05,0000.25,0000.19,-000.01,23.7,00.0,0646.9,34.2
2016-02-04T00:53:00Z,0000380,01000600,0000.79,0000.26,-000.03,0000.16,0000.26,0000.03,-000.12,-000.07,-000.18,23.7,00.0,0646.9,34.2
2016-02-04T00:54:00Z,0000380,01000600,0000.59,0000.12,0000.18,-000.71,-000.18,-000.08,-000.20,0000.03,-000.12,23.7,00.0,0646.9,34.2
2016-02-04T00:55:00Z,0000380,01000600,0000.61,-000.55,0000.02,-000.15,-000.29,-000.08,0000.17,0000.01,0000.30,23.7,00.0,0646.9,34.2
2016-02-04T00:56:00Z,0000380,01000600,0000.90,0001.01,0000.23,-000.11,-000.08,-000.10,0000.03,-000.02,0000.10,23.7,00.0,0646.9,34.2
2016-02-04T00:57:00Z,0000380,41000600,,,,,,,,,,,,0646.9,34.2
2016-02-04T00:58:00Z,0000380,61000600,,,,,,,,,,23.6,00.0,0646.1,34.2
2016-02-04T00:59:00Z,0000380,21000600,,,,,,,,,,23.5,00.0,0646.1,34.2
2016-02-04T01:00:00Z,0000380,21000600,,,,,,,,,,23.5,00.0,0646.1,34.2
2016-02-04T01:01:00Z,0000380,21000600,,,,,,,,,,23.5,00.0,0646.1,34.2
2016-02-04T01:02:00Z,0000380,21000600,,,,,,,,,,23.5,00.0,0646.1,34.2
2016-02-04T01:03:00Z,0000380,61000600,,,,,,,,,,23.6,00.0,0646.1,34.2
2016-02-04T01:04:00Z,0000380,41000600,-000.09,-000.07,0000.32,0000.32,0000.03,0000.18,-000.03,-000.02,-000.15,23.7,00.0,0646.7,34.2
2016-02-04T01:05:00Z,0000380,01000600,0000.89,-000.08,0000.17,-000.03,0000.16,0000.00,0000.06,-000.22,0000.03,23.7,00.0,0646.7,34.2
2016-02-04T01:06:00Z,0000380,01000600,-000.08,0000.21,0000.58,-000.37,0000.32,0000.21,-000.00,0000.07,0000.09,23.7,00.0,0646.7,34.2
2016-02-04T01:07:00Z,0000380,01000600,-000.25,0000.40,0000.35,0000.29,-000.47,0000.26,0000.06,-000.00,-000.11,23.8,00.0,0646.6,34.2
2016-02-04T01:08:00Z,0000380,01000600,-000.32,0000.32,0000.16,-000.19,-000.15,0000.32,0000.15,-000.05,0000.35,23.8,00.0,0646.7,34.2
2016-02-04T01:09:00Z,0000380,01000600,0000.14,0000.64,0000.43,0000.05,0000.34,0000.34,-000.09,0000.09,-000.04,23.8,00.0,0646.6,34.2
2016-02-04T01:10:00Z,0000380,01000600,-000.63,0000.53,0000.04,0000.39,0000.32,0000.18,0000.15,-000.01,-000.04,23.8,00.0,0646.7,34.2
2016-02-04T01:11:00Z,0000380,01000600,-000.09,0000.75,0000.17,0000.37,-000.02,0000.08,-000.08,0000.05,-000.18,23.8,00.0,0646.6,34.2
2016-02-04T01:12:00Z,0000380,01000600,0000.98,-000.22,0000.64,0000.28,0000.68,0000.15,0000.08,0000.23,-000.04,23.8,00.0,0646.7,34.2
2016-02-04T01:13:00Z,0000380,01000600,0000.25,0000.35,-000.07,0000.18,0000.32,-000.15,0000.09,-000.19,0000.27,23.9,00.0,0646.7,34.2
2016-02-04T01:14:00Z,0000380,01000600,0000.54,-000.53,0000.17,0000.18,0000.39,-000.02,-000.12,-000.07,0000.18,23.9,00.0,0646.6,34.2
2016-02-04T01:15:00Z,0000380,01000600,0000.47,0000.95,0000.84,0000.24,0000.76,0000.03,0000.16,0000.19,-000.36,23.9,00.0,0646.7,34.3
2016-02-04T01:16:00Z,0000380,01000600,0000.21,0000.66,0000.38,0000.23,0000.02,0000.03,-000.05,-000.14,0000.14,24.0,00.0,0646.6,34.3
2016-02-04T01:17:00Z,0000380,01000600,-001.29,0000.53,0000.13,-000.08,0000.26,0000.08,0000.05,0000.13,-000.06,24.0,00.0,0646.6,34.3
2016-02-04T01:18:00Z,0000380,01000600,0000.11,-000.07,0000.25,0000.34,0000.48,0000.03,0000.16,-000.01,-000.04,24.0,00.0,0646.6,34.3
2016-02-04T01:19:00Z,0000380,01000600,0001.03,0000.49,0000.32,0000.23,0000.05,-000.11,-000.33,0000.11,0000.11,24.0,00.0,0646.6,34.3
2016-02-04T01:20:00Z,0000380,01000600,0000.48,-000.19,-000.08,-000.31,0000.42,-000.03,0000.15,-000.06,0000.07,24.0,00.0,0646.7,34.3
2016-02-04T01:21:00Z,0000380,01000600,0000.16,0000.20,-000.12,0000.42,0000.47,0000.16,0000.04,0000.00,-000.11,24.0,00.0,0646.6,34.3
2016-02-04T01:22:00Z,0000380,01000600,0000.07,-000.02,0000.29,-000.16,0000.65,0000.13,-000.08,-000.07,0000.12,24.0,00.0,0646.7,34.3
2016-02-04T01:23:00Z,0000380,01000600,0000.70,-000.09,0000.10,0000.19,0000.44,-000.31,-000.16,-000.01,0000.04,24.0,00.0,0646.6,34.3
2016-02-04T01:24:00Z,0000380,01000600,0000.84,0000.92,-000.12,0000.26,0000.05,0000.02,0000.13,0000.01,-000.15,24.1,00.0,0646.6,34.3
2016-02-04T01:25:00Z,0000380,01000600,0000.43,-000.14,-000.04,0000.24,0000.61,-000.08,0000.19,0000.03,0000.11,24.1,00.0,0646.6,34.3
2016-02-04T01:26:00Z,0000380,01000600,-000.24,0000.25,0000.31,0000.19,0000.19,0000.19,-000.02,0000.10,-000.16,24.2,00.0,0646.6,34.3
2016-02-04T01:27:00Z,0000380,01000600,0000.27,-000.47,0000.17,0000.37,0000.06,-000.08,-000.00,-000.07,0000.11,24.2,00.0,0646.6,34.3
2016-02-04T01:28:00Z,0000380,01000600,0000.27,0000.04,0000.59,-000.16,0000.13,0000.29,0000.07,0000.07,0000.01,24.2,00.0,0646.6,34.3
2016-02-04T01:29:00Z,0000380,01000600,0000.35,0000.16,-000.27,0000.37,0000.50,-000.08,0000.14,-000.05,0000.08,24.2,00.0,0646.6,34.3
2016-02-04T01:30:00Z,0000380,01000600,-000.09,0000.44,0000.44,-000.42,0000.48,-000.18,-000.00,0000.18,0000.17,24.2,00.0,0646.6,34.4
2016-02-04T01:31:00Z,0000380,01000600,0000.79,0000.16,0000.33,0000.00,0000.50,0000.26,-000.05,-000.12,-000.27,24.3,00.0,0646.6,34.4
2016-02-04T01:32:00Z,0000380,01000600,-000.14,0000.11,0000.18,-000.02,0000.40,0000.36,0000.07,0000.02,0000.19,24.3,00.0,0646.6,34.4
2016-02-04T01:33:00Z,0000380,01000600,0000.73,0000.56,0000.38,0000.18,0000.27,0000.34,-000.03,0000.12,-000.10,24.3,00.0,0646.6,34.4
2016-02-04T01:34:00Z,0000380,01000600,0000.46,0000.61,0000.47,-000.02,0000.15,0000.00,0000.08,-000.14,0000.26,24.3,00.0,0646.6,34.4
2016-02-04T01:35:00Z,0000380,01000600,0000.04,0000.21,-000.35,0000.06,0000.24,-000.06,-000.20,0000.10,-000.36,24.3,00.0,0646.6,34.4
2016-02-04T01:36:00Z,0000380,01000600,0000.48,0000.29,0000.17,0000.52,0000.48,0000.02,0000.33,0000.07,0000.13,24.3,00.0,0646.7,34.4
2016-02-04T01:37:00Z,0000380,01000600,-000.10,-000.29,-000.20,0000.08,0000.21,0000.24,-000.15,0000.01,0000.11,24.3,00.0,0646.7,34.4
2016-02-04T01:38:00Z,0000380,01000600,0000.29,0000.67,0000.08,0000.08,-000.05,0000.24,0000.09,-000.01,-000.10,24.3,00.0,0646.7,34.4
2016-02-04T01:39:00Z,0000380,01000600,0000.35,-000.17,0000.15,0000.91,0000.11,-000.15,0000.01,0000.17,0000.47,24.4,00.0,0646.7,34.4
2016-02-04T01:40:00Z,0000380,01000600,0000.95,0000.36,0000.17,-000.76,-000.13,0000.06,0000.02,-000.09,-000.21,24.4,00.0,0646.7,34.4
2016-02-04T01:41:00Z,0000380,01000600,-000.43,0000.52,0000.49,0000.26,0000.47,0000.11,0000.05,-000.03,-000.03,24.4,00.0,0646.7,34.4
2016-02-04T01:42:00Z,0000380,01000600,0000.14,-000.02,0000.27,0000.02,0000.03,0000.00,0000.07,0000.13,-000.09,24.5,00.0,0646.7,34.4
2016-02-04T01:43:00Z,0000380,01000600,0000.85,-000.21,0000.46,0000.52,0000.11,0000.15,-000.03,-000.16,-000.03,24.5,00.0,0646.7,34.4
2016-02-04T01:44:00Z,0000380,01000600,0000.08,0000.26,0000.85,-000.21,0000.11,0000.24,0000.13,0000.03,0000.09,24.5,00.0,0646.7,34.4
2016-02-04T01:45:00Z,0000380,01000600,0000.55,0000.27,0000.04,0000.08,0000.32,-000.03,-000.16,0000.24,-000.03,24.5,00.0,0646.7,34.4
2016-02-04T01:46:00Z,0000380,01000600,0000.16,-000.30,0000.00,0000.36,0000.37,-000.26,0000.04,-000.13,0000.14,24.5,00.0,0646.7,34.4
2016-02-04T01:47:00Z,0000380,01000600,0000.49,0000.28,-000.08,0000.44,0000.02,0000.03,0000.01,0000.10,-000.22,24.5,00.0,0646.7,34.4
2016-02-04T01:48:00Z,0000380,01000600,0000.79,0000.19,0000.25,0000.65,0000.18,-000.20,-000.06,-000.09,0000.11,24.5,00.0,0646.7,34.4
2016-02-04T01:49:00Z,0000380,01000600,0000.48,0000.07,-000.06,-000.08,0000.16,-000.23,-000.06,0000.03,0000.02,24.5,00.0,0646.7,34.4
2016-02-04T01:50:00Z,0000380,01000600,0000.01,0000.00,0000.12,-000.60,0000.29,0000.05,0000.12,0000.16,0000.34,24.5,00.0,0646.7,34.4
2016-02-04T01:51:00Z,0000380,01000600,0000.17,-000.11,0000.62,0000.52,-000.10,0000.20,0000.15,-000.03,-000.25,24.5,00.0,0646.7,34.4
2016-02-04T01:52:00Z,0000380,01000600,0000.82,-000.20,0000.23,0000.23,-000.06,-000.10,-000.28,-000.00,-000.40,24.5,00.0,0646.7,34.4
2016-02-04T01:53:00Z,0000380,01000600,0000.07,0000.13,0000.37,-000.24,0000.13,0000.18,0000.13,0000.07,0000.45,24.5,00.0,0646.7,34.4
2016-02-04T01:54:00Z,0000380,01000600,0000.07,0000.31,0000.02,-000.08,-000.15,0000.23,0000.02,-000.11,0000.16,24.5,00.0,0646.7,34.4
2016-02-04T01:55:00Z,0000380,01000600,0000.46,0000.40,-000.04,0000.15,0000.16,0000.26,0000.03,0000.08,-000.07,24.5,00.0,0646.7,34.4
2016-02-04T01:56:00Z,0000380,01000600,0000.96,0000.17,0000.05,0000.42,0000.06,0000.00,0000.11,0000.09,-000.29,24.5,00.0,0646.7,34.4
2016-02-04T01:57:00Z,0000380,41000600,,,,,,,,,,,,0646.6,34.4
2016-02-04T01:58:00Z,0000380,61000600,,,,,,,,,,24.3,00.0,0645.9,34.4
2016-02-04T01:59:00Z,0000380,21000600,,,,,,,,,,24.3,00.0,0645.9,34.4
2016-02-04T02:00:00Z,0000380,21000600,,,,,,,,,,24.3,00.0,0645.9,34.3
2016-02-04T02:01:00Z,0000380,21000600,,,,,,,,,,24.3,00.0,0645.9,34.3
2016-02-04T02:02:00Z,0000380,21000600,,,,,,,,,,24.3,00.0,0645.9,34.3
2016-02-04T02:03:00Z,0000380,61000600,,,,,,,,,,24.4,00.0,0645.9,34.3
2016-02-04T02:04:00Z,0000380,41000600,0000.65,-000.06,0000.47,0000.31,-000.34,0000.42,0000.03,-000.09,-000.00,24.5,00.0,0646.6,34.3
2016-02-04T02:05:00Z,0000380,01000600,0000.29,-000.47,0000.07,0000.84,-000.13,0000.02,0000.06,0000.10,0000.13,24.5,00.0,0646.7,34.3
2016-02-04T02:06:00Z,0000380,01000600,0000.02,-000.08,0000.42,-000.08,0000.15,0000.37,0000.00,0000.02,0000.13,24.5,00.0,0646.7,34.3
2016-02-04T02:07:00Z,0000380,01000600,0000.20,0000.62,0000.25,0000.52,0000.27,0000.24,-000.01,-000.01,-000.19,24.5,00.0,0646.7,34.3
2016-02-04T02:08:00Z,0000380,01000600,-000.29,-000.15,0000.62,0000.16,-000.10,0000.31,-000.07,0000.09,0000.04,24.5,00.0,0646.7,34.3
2016-02-04T02:09:00Z,0000380,01000600,-000.24,-000.46,0000.18,0000.75,0000.49,0000.05,-000.06,-000.12,-000.11,24.5,00.0,0646.7,34.3
2016-02-04T02:10:00Z,0000380,01000600,-000.54,-000.27,-000.21,0000.39,0000.08,0000.24,0000.26,0000.15,0000.03,24.5,00.0,0646.7,34.3
2016-02-04T02:11:00Z,0000380,01000600,0000.78,-000.88,0000.68,0000.26,-000.05,0000.21,-000.26,0000.03,0000.06,24.5,00.0,0646.6,34.3
2016-02-04T02:12:00Z,0000380,01000600,-000.50,-000.20,0000.39,-000.03,0000.31,0000.33,0000.25,-000.10,-000.04,24.5,00.0,0646.6,34.3
2016-02-04T02:13:00Z,0000380,01000600,0000.00,0000.35,0000.05,-000.05,0000.29,0000.13,-000.07,0000.02,0000.33,24.5,00.0,0646.6,34.3
2016-02-04T02:14:00Z,0000380,01000600,0000.80,-000.79,0000.08,0000.28,-000.02,0000.00,0000.09,0000.12,-000.04,24.5,00.0,0646.6,34.3
2016-02-04T02:15:00Z,0000380,01000600,0000.62,-000.06,0000.63,-000.18,0000.10,-000.05,0000.04,0000.05,-000.24,24.5,00.0,0646.6,34.3
2016-02-04T02:16:00Z,0000380,01000600,-000.41,0000.43,0000.27,-000.02,0000.15,0000.28,0000.05,-000.18,0000.31,24.5,00.0,0646.7,34.3
2016-02-04T02:17:00Z,0000380,01000600,-000.14,0000.71,-000.06,0000.19,0000.05,0000.11,0000.22,0000.37,0000.14,24.5,00.0,0646.7,34.3
2016-02-04T02:18:00Z,0000380,01000600,0000.29,-000.08,0000.31,-000.31,-000.10,0000.07,-000.20,-000.10,-000.37,24.5,00.0,0646.7,34.3
2016-02-04T02:19:00Z,0000380,01000600,0000.11,-000.26,0000.68,0000.63,0000.05,0000.03,-000.01,-000.18,0000.00,24.5,00.0,0646.8,34.3
2016-02-04T02:20:00Z,0000380,01000600,-000.30,0000.68,0000.27,-000.10,0000.27,0000.36,-000.02,0000.11,0000.07,24.5,00.0,0646.8,34.3
2016-02-04T02:21:00Z,0000380,01000600,0000.52,0000.51,0000.40,0000.03,0000.18,0000.52,-000.05,0000.19,-000.05,24.5,00.0,0646.8,34.3
2016-02-04T02:22:00Z,0000380,01000600,-000.13,-000.13,0000.32,0000.60,-000.42,0000.33,0000.13,-000.23,0000.02,24.5,00.0,0646.8,34.3
2016-02-04T02:23:00Z,0000380,01000600,0000.32,-000.19,0000.58,0000.49,0000.36,0000.44,-000.06,0000.12,0000.02,24.5,00.0,0646.8,34.3
2016-02-04T02:24:00Z,0000380,01000600,0000.33,0000.16,0000.23,0000.65,-000.24,0000.18,0000.01,-000.01,0000.13,24.5,00.0,0646.9,34.3
2016-02-04T02:25:00Z,0000380,01000600,0000.41,-000.66,0000.11,0000.10,-000.48,0000.05,0000.04,-000.03,0000.01,24.5,00.0,0646.9,34.3
2016-02-04T02:26:00Z,0000380,01000600,-000.20,-000.14,-000.11,0000.32,0000.44,0000.34,0000.10,0000.12,0000.07,24.5,00.0,0646.9,34.3
2016-02-04T02:27:00Z,0000380,01000600,0000.26,0000.53,0000.45,-000.08,0000.21,0000.21,0000.07,-000.11,-000.18,24.6,00.0,0646.9,34.3
2016-02-04T02:28:00Z,0000380,01000600,0000.57,0000.10,0000.57,0000.62,0000.29,0000.07,0000.17,0000.34,0000.51,24.6,00.0,0646.9,34.3
2016-02-04T02:29:00Z,0000380,01000600,0000.20,0000.58,0000.68,0000.84,0000.18,0000.16,-000.30,-000.10,-000.39,24.6,00.0,0646.9,34.3
2016-02-04T02:30:00Z,0000380,01000600,-000.13,-000.25,0000.13,0000.19,0000.16,0000.26,-000.05,0000.04,-000.29,24.6,00.0,0646.9,34.3
2016-02-04T02:31:00Z,0000380,01000600,-000.41,-000.33,-000.08,0000.19,0000.24,-000.02,0000.22,-000.03,0000.20,24.6,00.0,0647.0,34.3
2016-02-04T02:32:00Z,0000380,01000600,-000.11,-000.37,0000.14,0000.31,-000.24,0000.08,0000.22,0000.04,0000.18,24.6,00.0,0647.0,34.3
2016-02-04T02:33:00Z,0000380,01000600,-000.11,0000.29,0000.54,0000.44,-000.05,0000.11,0000.05,-000.15,0000.12,24.6,00.0,0647.0,34.3
2016-02-04T02:34:00Z,0000380,01000600,0000.17,0000.42,-000.25,0000.83,0000.02,0000.08,-000.07,0000.18,-000.22,24.6,00.0,0647.0,34.3
2016-02-04T02:35:00Z,0000380,01000600,0000.66,0000.06,0000.02,0000.80,0000.11,0000.20,-000.12,0000.20,0000.18,24.6,00.0,0647.0,34.3
2016-02-04T02:36:00Z,0000380,01000600,0000.47,0000.09,0000.22,-000.10,0000.23,0000.33,0000.13,-000.10,0000.19,24.6,00.0,0647.0,34.3
2016-02-04T02:37:00Z,0000380,01000600,0000.20,-000.17,0000.93,-000.36,-000.10,0000.02,0000.14,0000.07,-000.06,24.5,00.0,0646.9,34.3
2016-02-04T02:38:00Z,0000380,01000600,0000.21,-000.60,0000.04,-000.02,0000.36,0000.34,-000.04,0000.03,-000.18,24.6,00.0,0646.9,34.3
2016-02-04T02:39:00Z,0000380,01000600,0000.60,0000.66,0000.35,0000.44,0000.36,0000.23,0000.09,-000.06,0000.29,24.6,00.0,0646.9,34.3
2016-02-04T02:40:00Z,0000380,01000600,-000.35,-000.11,-000.14,0000.18,-000.48,0000.00,0000.06,0000.07,-000.35,24.6,00.0,0647.0,34.3
2016-02-04T02:41:00Z,0000380,01000600,0000.45,-000.08,0000.57,-000.19,-000.21,0000.07,0000.11,0000.16,-000.01,24.6,00.0,0646.9,34.3
2016-02-04T02:42:00Z,0000380,01000600,0000.30,0000.13,0000.36,0000.58,0000.32,0000.28,-000.23,-000.24,0000.26,24.6,00.0,0646.9,34.3
2016-02-04T02:43:00Z,0000380,01000600,-000.63,-000.93,0000.35,-000.15,-000.32,-000.07,0000.15,0000.10,-000.18,24.6,00.0,0646.9,34.3
2016-02-04T02:44:00Z,0000380,01000600,0000.30,0000.53,-000.23,0000.29,0000.23,-000.02,-000.27,-000.05,0000.02,24.6,00.0,0646.9,34.3
2016-02-04T02:45:00Z,0000380,01000600,0000.76,-000.21,0000.00,0000.42,0000.29,-000.29,0000.22,0000.20,-000.05,24.6,00.0,0646.9,34.3
2016-02-04T02:46:00Z,0000380,01000600,0000.18,-000.57,-000.11,0000.28,0000.11,0000.23,-000.02,-000.16,0000.29,24.6,00.0,0646.9,34.3
2016-02-04T02:47:00Z,0000380,01000600,0000.02,0000.31,0000.21,-000.02,0000.65,0000.16,0000.10,0000.07,-000.03,24.6,00.0,0646.9,34.3
2016-02-04T02:48:00Z,0000380,01000600,-001.06,0000.05,0000.05,-000.73,0000.02,0000.02,-000.18,0000.05,-000.19,24.6,00.0,0646.9,34.3
2016-02-04T02:49:00Z,0000380,01000600,0000.54,0000.32,0000.17,0000.55,0000.37,0000.10,0000.19,-000.01,0000.08,24.5,00.0,0646.9,34.3
2016-02-04T02:50:00Z,0000380,01000600,0000.32,-000.42,0000.57,0000.18,-000.03,0000.03,0000.19,0000.03,0000.33,24.5,00.0,0647.0,34.3
2016-02-04T02:51:00Z,0000380,01000600,-000.45,-000.40,0000.11,-000.15,0000.03,-000.05,-000.18,0000.09,-000.07,24.5,00.0,0646.9,34.3
2016-02-04T02:52:00Z,0000380,01000600,-000.17,0000.09,0000.38,0000.32,-000.02,0000.55,0000.14,0000.11,-000.15,24.5,00.0,0646.9,34.3
2016-02-04T02:53:00Z,0000380,01000600,-000.34,-000.29,0000.13,-000.13,-000.21,0000.34,0000.06,0000.12,0000.13,24.5,00.0,0646.9,34.3
2016-02-04T02:54:00Z,0000380,01000600,0000.89,0000.59,-000.06,0000.08,0000.05,0000.08,-000.09,-000.19,-000.14,24.5,00.0,0646.9,34.3
2016-02-04T02:55:00Z,0000380,01000600,-000.06,-000.16,0000.10,-000.26,0000.19,-000.15,0000.14,0000.05,0000.10,24.5,00.0,0646.9,34.3
2016-02-04T02:56:00Z,0000380,01000600,0000.54,-000.38,0000.26,0000.32,0000.31,0000.41,0000.07,0000.13,0000.14,24.5,00.0,0646.9,34.3
2016-02-04T02:57:00Z,0000380,41000600,,,,,,,,,,,,0647.0,34.3
2016-02-04T02:58:00Z,0000380,61000600,,,,,,,,,,24.5,00.0,0646.1,34.3
2016-02-04T02:59:00Z,0000380,21000600,,,,,,,,,,24.5,00.0,0646.1,34.3
2016-02-04T03:00:00Z,0000380,21000600,,,,,,,,,,24.5,00.0,0646.1,34.3
2016-02-04T03:01:00Z,0000380,21000600,,,,,,,,,,24.5,00.0,0646.1,34.3
2016-02-04T03:02:00Z,0000380,21000600,,,,,,,,,,24.5,00.0,0646.1,34.3
2016-02-04T03:03:00Z,0000380,61000600,,,,,,,,,,24.5,00.0,0646.1,34.3
2016-02-04T03:04:00Z,0000380,41000600,0000.67,-000.02,0000.45,0000.08,0000.36,0000.13,-000.01,-000.03,-000.36,24.5,00.0,0646.7,34.3
2016-02-04T03:05:00Z,0000380,01000600,0000.72,0000.43,0000.34,-000.49,0000.11,0000.21,0000.01,-000.11,0000.02,24.5,00.0,0646.7,34.3
2016-02-04T03:06:00Z,0000380,01000600,0000.60,0000.32,0000.04,0000.19,0000.52,0000.02,0000.01,0000.18,-000.10,24.5,00.0,0646.7,34.3
2016-02-04T03:07:00Z,0000380,01000600,0000.12,-000.10,-000.32,0000.03,0000.00,0000.05,0000.16,0000.13,0000.15,24.5,00.0,0646.7,34.3
2016-02-04T03:08:00Z,0000380,01000600,0000.28,0000.19,0000.26,-000.42,-000.23,-000.13,-000.07,0000.03,0000.23,24.5,00.0,0646.7,34.3
2016-02-04T03:09:00Z,0000380,01000600,0000.43,0000.43,0000.09,0000.02,0000.06,-000.05,0000.06,0000.03,-000.25,24.5,00.0,0646.7,34.3
2016-02-04T03:10:00Z,0000380,01000600,0000.64,0000.87,-000.02,-000.96,-000.11,-000.18,-000.18,-000.15,0000.23,24.5,00.0,0646.6,34.3
2016-02-04T03:11:00Z,0000380,01000600,0000.43,-000.41,0000.03,-000.45,0000.21,0000.11,0000.19,0000.14,0000.05,24.5,00.0,0646.6,34.3
2016-02-04T03:12:00Z,0000380,01000600,-000.68,0000.17,-000.03,-000.96,-000.11,0000.21,-000.17,-000.19,-000.09,24.5,00.0,0646.6,34.3